Date,TemperatureHighF,TemperatureAvgF,TemperatureLowF,DewpointHighF,DewpointAvgF,DewpointLowF,HumidityHigh,HumidityAvg,HumidityLow,PressureMaxIn,PressureMinIn,WindSpeedMaxMPH,WindSpeedAvgMPH,GustSpeedMaxMPH,PrecipitationSumIn
2012-1-1,72,53,37,59,48,35,93,83,63,30.16,29.95,8,0,16,0.00
2012-1-2,58,47,37,52,29,14,85,52,29,30.08,29.94,14,2,24,0.00
2012-1-3,39,32,25,17,13,11,72,46,33,30.34,30.06,32,3,32,0.00
2012-1-4,50,33,20,22,18,15,87,58,28,30.41,30.14,8,0,10,0.00
2012-1-5,61,44,32,38,29,19,82,56,37,30.14,30.02,12,1,16,0.00
2012-1-6,69,48,34,43,36,31,90,66,36,30.13,30.00,8,0,12,0.00
2012-1-7,73,51,44,58,44,36,94,78,59,30.08,29.96,10,0,22,0.00
2012-1-8,70,57,47,59,53,46,100,88,65,30.19,30.07,8,0,10,0.03
2012-1-9,69,58,50,62,55,49,98,92,77,30.16,30.04,10,0,12,0.06
2012-1-10,59,57,54,59,56,54,100,97,96,30.06,29.93,4,0,8,0.07
2012-1-11,64,58,49,63,56,46,99,96,85,29.93,29.54,12,0,22,0.13
2012-1-12,64,52,44,52,47,42,94,84,59,29.77,29.59,16,1,26,0.00
2012-1-13,54,40,33,42,26,21,70,56,40,30.10,29.70,20,2,32,0.00
2012-1-14,51,38,27,28,25,22,87,60,33,30.26,30.10,14,1,30,0.00
2012-1-15,54,42,32,34,30,27,86,66,42,30.49,30.13,10,0,14,0.00
2012-1-16,58,43,31,42,36,29,100,77,47,30.56,30.34,4,0,16,0.00
2012-1-17,66,55,45,58,50,40,95,84,70,30.33,29.97,4,0,18,0.08
2012-1-18,61,54,39,58,50,36,98,88,69,30.04,29.88,10,1,12,0.09
2012-1-19,56,42,34,43,37,29,93,82,54,30.19,30.02,6,0,10,0.00
2012-1-20,59,49,38,55,45,37,96,86,63,30.14,30.02,4,0,4,0.04
2012-1-21,64,58,54,58,55,53,98,91,70,30.04,29.86,10,0,12,0.50
2012-1-22,57,47,42,56,46,40,98,95,92,30.27,30.02,8,0,14,0.01
2012-1-23,60,49,42,60,48,41,100,96,92,30.25,29.99,2,0,6,0.00
2012-1-24,74,61,45,60,53,42,99,79,39,30.19,29.99,10,0,16,0.01
2012-1-25,67,49,37,51,44,36,97,84,51,30.27,30.14,4,0,8,0.00
2012-1-26,76,64,49,65,60,47,98,88,66,30.15,29.78,4,0,16,0.00
2012-1-27,67,61,46,64,55,43,97,81,55,30.01,29.66,14,1,28,0.20
2012-1-28,67,50,37,46,40,36,97,75,35,30.16,30.00,14,1,20,0.00
2012-1-29,58,47,34,41,29,22,80,53,26,30.36,30.16,12,1,16,0.00
2012-1-30,64,45,30,35,30,25,83,58,26,30.44,30.30,8,0,14,0.00
2012-1-31,68,48,32,42,36,30,96,66,27,30.42,30.27,6,0,12,0.00
2012-2-1,75,56,40,57,49,38,97,78,47,30.29,30.06,10,0,12,0.00
2012-2-2,75,62,50,59,54,45,97,77,44,30.24,30.02,12,1,20,0.01
2012-2-3,64,54,45,46,40,35,80,60,40,30.41,30.24,8,0,10,0.00
2012-2-4,74,60,51,60,53,44,89,78,59,30.33,30.02,6,0,12,0.00
2012-2-5,79,64,51,63,57,46,94,79,45,30.12,29.90,10,1,20,0.00
2012-2-6,50,48,45,46,42,40,87,81,76,30.22,30.11,8,0,12,0.00
2012-2-7,60,48,38,44,41,35,97,76,49,30.15,30.07,10,0,12,0.00
2012-2-8,61,46,33,44,38,31,96,77,48,30.14,30.02,4,0,10,0.00
2012-2-9,54,44,38,40,36,34,90,73,51,30.27,30.13,8,0,12,0.00
2012-2-10,54,49,32,48,44,30,95,85,74,30.19,29.86,2,0,4,0.00
2012-2-11,55,46,29,44,32,9,95,61,32,30.15,29.76,18,4,40,0.00
2012-2-12,46,33,24,18,13,9,68,44,29,30.30,30.15,14,2,20,0.00
2012-2-13,58,36,22,34,21,16,81,58,25,30.29,30.11,8,0,12,0.00
2012-2-14,52,41,36,40,34,29,83,78,64,30.13,30.06,4,0,4,0.00
2012-2-15,67,55,46,52,47,43,92,76,48,30.21,30.06,2,0,12,0.00
2012-2-16,65,60,46,63,59,44,98,96,93,30.21,29.96,8,0,10,0.24
2012-2-17,65,56,46,58,51,44,97,86,58,30.09,29.98,8,0,14,0.00
2012-2-18,66,47,39,56,44,38,97,93,57,30.07,29.89,2,0,10,0.12
2012-2-19,57,52,40,57,51,38,98,97,93,29.89,29.57,12,1,16,0.82
2012-2-20,56,43,34,38,36,33,94,77,47,30.29,29.89,14,1,16,0.00
2012-2-21,65,48,35,53,43,33,96,82,61,30.30,30.02,4,0,14,0.00
2012-2-22,76,58,46,57,51,45,98,81,43,30.03,29.65,8,0,14,0.00
2012-2-23,83,70,58,65,60,56,97,74,45,29.71,29.61,12,1,22,0.00
2012-2-24,81,69,54,69,62,36,95,79,50,29.89,29.58,12,2,22,0.11
2012-2-25,59,48,38,36,31,25,77,53,29,30.27,29.89,26,2,28,0.00
2012-2-26,58,47,38,41,31,24,78,55,32,30.48,30.27,6,0,12,0.00
2012-2-27,54,51,48,52,49,40,97,91,70,30.39,30.29,4,0,8,0.09
2012-2-28,72,58,50,53,50,44,98,79,46,30.37,30.25,10,0,12,0.00
2012-2-29,82,66,55,66,60,53,95,80,55,30.25,29.91,14,0,18,0.07
2012-3-1,76,66,61,69,64,60,98,93,78,29.94,29.80,14,0,14,0.30
2012-3-2,82,70,62,69,64,61,99,85,56,29.93,29.73,12,0,16,0.05
2012-3-3,68,62,56,65,61,56,100,95,86,29.75,29.66,26,0,26,2.04
2012-3-4,59,50,37,56,39,25,98,72,30,30.08,29.61,28,3,40,0.78
2012-3-5,65,51,37,39,31,24,84,52,22,30.46,30.03,30,3,42,0.00
2012-3-6,60,48,38,43,32,26,82,56,30,30.60,30.45,8,0,14,0.00
2012-3-7,71,57,46,55,50,41,93,77,55,30.57,30.39,8,0,12,0.00
2012-3-8,78,63,50,62,56,49,97,80,52,30.39,30.11,8,0,14,0.00
2012-3-9,70,62,50,63,57,42,97,86,68,30.24,30.07,10,1,14,0.00
2012-3-10,66,53,43,45,39,33,86,62,36,30.44,30.24,10,1,16,0.00
2012-3-11,69,54,45,52,46,42,90,76,49,30.51,30.36,10,0,12,0.00
2012-3-12,73,59,45,58,52,44,97,79,59,30.40,30.24,8,0,10,0.00
2012-3-13,78,64,57,66,59,54,97,86,62,30.25,30.12,10,0,12,0.01
2012-3-14,84,67,57,67,60,55,99,80,38,30.21,30.11,10,0,12,0.00
2012-3-15,86,74,61,64,59,55,93,62,36,30.21,30.13,6,0,10,0.00
2012-3-16,84,66,58,67,61,57,98,87,53,30.20,30.09,12,0,14,0.00
2012-3-17,84,67,56,66,61,55,98,82,51,30.19,30.07,2,0,14,0.01
2012-3-18,79,67,55,66,61,55,98,83,56,30.23,30.13,2,0,20,0.00
2012-3-19,85,74,55,67,63,54,98,68,48,30.18,30.05,10,0,12,0.03
2012-3-20,84,69,55,66,60,54,100,77,46,30.19,30.06,10,0,14,0.00
2012-3-21,80,70,62,67,65,61,98,85,57,30.24,30.13,8,0,18,0.03
2012-3-22,82,69,61,69,64,60,99,87,54,30.22,30.10,4,0,14,0.00
2012-3-23,83,69,57,69,63,56,99,85,57,30.12,29.93,8,0,14,0.26
2012-3-24,76,67,59,69,64,58,99,90,65,29.99,29.72,8,0,12,0.20
2012-3-25,70,60,51,58,55,51,98,84,55,29.78,29.67,12,1,20,0.01
2012-3-26,82,65,55,60,54,49,94,71,33,29.98,29.78,14,1,18,0.00
2012-3-27,70,60,51,54,45,37,84,59,37,30.27,29.99,8,1,16,0.00
2012-3-28,82,66,50,66,56,46,95,75,42,30.24,29.93,14,1,22,0.00
2012-3-29,88,71,57,63,59,55,94,70,39,29.95,29.81,12,1,20,0.00
2012-3-30,87,71,57,64,59,55,96,70,39,29.96,29.82,8,0,14,0.00
2012-3-31,76,68,63,69,65,62,98,89,73,29.88,29.70,10,0,18,0.34
2012-4-1,78,66,56,65,60,55,98,84,58,29.86,29.72,8,0,12,0.00
2012-4-2,90,73,61,69,64,60,96,77,44,29.87,29.68,12,1,24,0.00
2012-4-3,81,70,64,69,64,61,91,81,66,29.96,29.84,8,0,12,0.00
2012-4-4,85,71,60,71,65,60,98,83,55,29.90,29.62,10,1,16,0.13
2012-4-5,87,69,56,71,64,54,95,84,51,29.70,29.56,12,1,16,0.05
2012-4-6,63,53,45,54,48,43,95,83,51,30.04,29.68,16,1,22,0.01
2012-4-7,72,55,38,52,43,36,98,70,35,30.23,30.04,12,1,14,0.00
2012-4-8,81,62,46,55,50,44,92,68,35,30.16,29.94,10,1,20,0.00
2012-4-9,80,65,55,54,46,36,89,56,23,30.08,29.88,12,0,16,0.00
2012-4-10,83,64,46,51,47,42,94,61,27,30.01,29.81,22,1,26,0.00
2012-4-11,68,59,48,51,39,30,78,49,24,30.08,29.84,18,2,32,0.00
2012-4-12,66,53,44,42,34,30,76,51,30,30.21,30.08,12,1,20,0.00
2012-4-13,72,56,38,49,41,35,96,64,32,30.23,30.12,8,0,12,0.00
2012-4-14,77,60,41,62,52,39,96,74,46,30.30,30.16,10,0,14,0.00
2012-4-15,82,70,58,67,62,57,98,78,58,30.22,30.14,8,0,18,0.00
2012-4-16,86,70,56,67,60,55,98,75,45,30.21,30.08,14,0,20,0.00
2012-4-17,89,72,60,68,63,58,98,75,47,30.16,29.99,10,0,14,0.00
2012-4-18,82,67,59,69,63,57,98,86,60,30.05,29.94,12,1,18,0.06
2012-4-19,67,62,59,62,60,58,97,92,84,30.03,29.95,10,0,12,0.01
2012-4-20,74,65,61,65,61,58,95,88,74,29.97,29.82,4,0,10,0.00
2012-4-21,86,68,58,70,64,57,98,88,44,29.84,29.64,14,0,14,0.00
2012-4-22,69,63,53,66,61,52,97,93,86,29.63,29.42,12,1,22,0.40
2012-4-23,62,53,44,51,43,38,96,73,43,29.76,29.57,16,2,24,0.02
2012-4-24,68,53,37,42,39,35,93,63,34,29.84,29.75,22,2,28,0.00
2012-4-25,84,64,50,60,52,40,84,66,41,29.95,29.82,14,0,18,0.00
2012-4-26,89,74,64,64,58,55,80,59,34,29.93,29.79,16,2,26,0.00
2012-4-27,89,75,64,70,64,60,94,70,50,30.00,29.85,10,1,22,0.01
2012-4-28,91,75,63,72,66,61,96,76,42,30.06,29.96,6,0,12,0.00
2012-4-29,90,73,59,70,64,58,98,77,35,30.11,30.02,10,1,12,0.00
2012-4-30,85,73,64,72,68,62,97,83,62,30.17,30.07,6,0,12,0.00
2012-5-1,90,75,64,71,67,63,98,77,42,30.16,30.02,10,0,18,0.00
2012-5-2,90,77,66,70,67,64,97,75,47,30.14,30.03,10,1,18,0.00
2012-5-3,88,75,61,71,67,60,98,78,50,30.14,30.02,10,1,12,0.00
2012-5-4,90,74,64,72,68,63,98,82,51,30.06,29.91,8,0,14,0.02
2012-5-5,96,80,66,74,68,64,99,73,41,29.92,29.73,16,2,22,0.01
2012-5-9,66,65,64,66,64,63,97,97,97,29.71,29.70,0,0,6,0.75
2012-5-10,80,67,55,63,56,50,98,74,39,29.91,29.71,12,1,18,0.01
2012-5-11,81,68,55,59,55,49,94,67,41,30.18,29.91,10,1,14,0.00
2012-5-12,80,68,57,65,59,54,97,74,41,30.29,30.17,8,0,18,0.00
2012-5-13,76,68,63,69,65,61,98,91,74,30.20,30.06,10,0,14,0.09
2012-5-14,80,69,64,73,68,63,99,95,77,30.05,29.87,8,0,12,1.04
2012-5-15,87,74,65,75,69,65,99,88,58,29.96,29.83,8,0,14,0.58
2012-5-16,82,76,66,73,70,66,99,82,69,29.93,29.83,4,0,10,0.01
2012-5-17,82,69,64,72,66,63,98,89,69,29.93,29.84,10,1,16,0.00
2012-5-18,73,67,62,65,61,56,94,82,55,30.01,29.90,10,1,14,0.02
2012-5-19,76,67,62,58,55,50,83,66,45,30.06,29.98,10,1,16,0.00
2012-5-20,85,72,60,64,56,51,79,60,39,30.04,29.94,12,1,18,0.00
2012-5-21,85,73,61,69,65,60,96,77,49,29.99,29.82,10,1,14,0.00
2012-5-22,89,73,63,72,66,62,98,83,47,29.87,29.73,6,0,18,0.02
2012-5-23,88,74,63,72,67,62,98,81,48,29.87,29.77,8,0,12,0.01
2012-5-24,90,77,69,75,68,59,98,78,38,29.97,29.86,6,0,12,0.00
2012-5-25,92,78,66,72,68,64,97,77,43,30.07,29.96,12,1,16,0.00
2012-5-26,92,79,66,73,68,64,98,73,44,30.06,29.95,14,1,20,0.00
2012-5-27,90,79,71,74,70,67,90,76,56,30.01,29.95,12,1,14,0.00
2012-5-28,85,76,73,78,74,72,98,93,72,29.99,29.90,10,0,18,0.73
2012-5-29,85,76,72,76,73,70,98,91,69,29.94,29.68,10,0,16,1.95
2012-5-30,89,76,66,77,71,65,98,86,62,29.81,29.57,16,2,24,1.57
2012-5-31,91,77,65,76,69,64,98,80,45,29.86,29.77,8,0,12,0.00
2012-6-1,90,76,69,75,72,68,98,87,55,29.84,29.70,16,0,24,0.24
2012-6-2,82,73,62,69,65,59,98,78,50,29.88,29.73,14,1,20,0.00
2012-6-3,88,71,55,65,60,54,96,72,39,29.95,29.82,10,1,18,0.00
2012-6-4,80,72,66,73,69,63,97,91,75,29.82,29.66,12,0,20,0.29
2012-6-5,71,67,63,70,65,62,97,93,83,29.83,29.65,10,0,18,0.48
2012-6-6,74,66,61,67,64,60,98,93,76,29.95,29.77,6,0,12,0.20
2012-6-7,81,70,59,68,63,58,98,81,56,30.01,29.94,6,0,12,0.00
2012-6-8,86,72,59,68,63,58,98,77,47,30.02,29.93,6,0,12,0.00
2012-6-9,86,77,60,70,65,59,98,69,44,30.06,29.98,8,0,10,0.00
2012-6-10,80,73,68,74,71,64,98,92,81,30.11,29.99,6,0,8,0.38
2012-6-11,83,72,68,78,71,67,99,97,84,30.09,30.00,10,0,24,1.45
2012-6-12,83,74,69,79,73,68,99,96,83,30.02,29.83,6,0,8,0.01
2012-6-13,90,76,68,77,72,65,98,88,59,29.92,29.82,20,1,26,0.44
2012-6-14,69,69,68,69,68,68,98,98,98,29.92,29.92,0,0,0,0.00
2012-6-16,83,75,63,65,61,57,94,64,45,30.18,30.07,10,1,16,0.00
2012-6-17,83,70,60,67,63,58,97,78,52,30.13,29.97,10,0,12,0.00
2012-6-18,85,73,60,69,63,58,98,76,42,30.08,30.00,4,0,10,0.00
2012-6-19,87,75,62,73,68,61,98,80,53,30.14,30.07,4,0,10,0.00
2012-6-20,88,76,65,75,69,64,98,81,57,30.14,30.03,4,0,12,0.00
2012-6-21,90,77,66,76,70,65,98,81,57,30.06,29.88,8,0,10,0.00
2012-6-22,92,78,65,76,69,64,97,78,53,29.93,29.82,8,0,12,0.00
2012-6-23,92,80,69,78,73,68,98,81,55,29.95,29.85,4,0,10,0.00
2012-6-24,90,79,70,79,74,69,98,87,63,29.96,29.84,4,0,10,0.78
2012-6-25,87,77,70,78,74,69,98,90,67,29.88,29.67,10,0,12,0.00
2012-6-26,79,74,68,73,65,58,97,76,57,29.80,29.65,10,1,18,0.00
2012-6-27,87,73,62,66,60,56,90,65,40,29.94,29.79,10,1,16,0.00
2012-6-28,95,76,59,72,66,58,97,73,42,30.02,29.88,12,0,12,0.00
2012-6-29,103,83,69,80,73,66,93,74,46,29.89,29.73,8,0,12,0.00
2012-6-30,104,86,73,84,78,71,97,78,44,29.85,29.76,4,0,10,0.00
2012-7-1,102,84,69,87,78,66,98,84,49,30.11,29.82,12,0,26,0.37
2012-7-2,92,84,69,78,74,68,97,74,56,30.06,29.92,12,1,14,0.08
2012-7-3,98,87,70,80,76,70,97,72,50,29.98,29.87,4,0,10,0.08
2012-7-4,97,81,68,78,73,67,97,78,48,30.00,29.87,8,0,12,0.00
2012-7-5,99,84,74,82,76,71,97,80,51,29.93,29.82,12,0,22,0.00
2012-7-6,96,83,72,78,74,70,94,77,51,29.95,29.86,4,0,10,0.00
2012-7-7,98,84,71,80,75,70,96,78,50,30.01,29.90,12,0,16,0.00
2012-7-8,100,86,75,78,75,73,94,73,43,29.99,29.83,14,1,16,0.00
2012-7-9,102,86,73,79,74,71,96,71,43,29.97,29.78,16,1,22,1.35
2012-7-10,94,77,71,80,74,70,98,91,61,30.02,29.84,8,0,14,0.57
2012-7-11,89,76,70,77,72,69,99,89,64,30.04,29.95,4,0,10,0.16
2012-7-12,86,75,71,79,73,70,98,94,76,30.09,30.01,8,0,10,0.02
2012-7-13,89,77,74,80,75,72,98,92,73,30.12,30.05,7,0,7,0.23
2012-7-14,90,80,73,80,76,72,99,88,67,30.16,30.06,2,0,6,0.00
2012-7-15,91,78,70,78,74,69,98,86,59,30.16,30.03,4,0,6,0.02
2012-7-16,94,80,70,79,74,69,98,84,53,30.07,29.90,5,0,6,0.00
2012-7-17,93,79,71,81,74,70,98,86,61,29.96,29.86,4,0,5,0.00
2012-7-18,94,80,70,80,75,70,98,85,59,30.00,29.89,4,0,6,0.00
2012-7-19,94,81,72,81,76,71,97,84,61,30.04,29.93,4,0,7,0.00
2012-7-20,94,82,74,80,75,72,96,81,57,29.98,29.87,4,0,7,0.00
2012-7-21,88,79,74,78,75,72,94,86,70,30.06,29.95,7,0,8,0.00
2012-7-22,96,83,75,81,77,74,97,82,55,30.14,30.05,5,0,6,0.00
2012-7-23,96,83,73,80,76,72,98,80,54,30.16,30.02,4,0,7,0.00
2012-7-24,100,85,74,81,76,73,97,77,44,30.04,29.83,10,0,12,0.36
2012-7-25,92,80,71,79,75,70,98,85,57,29.94,29.85,3,0,6,0.00
2012-7-26,100,87,76,84,79,76,98,81,52,29.89,29.79,6,0,6,0.00
2012-7-27,98,87,76,83,78,73,94,75,58,29.93,29.82,5,0,6,0.00
2012-7-28,95,82,74,81,76,72,96,83,63,29.96,29.86,7,0,7,0.00
2012-7-29,92,79,72,81,75,71,97,88,69,29.95,29.84,3,0,13,0.07
2012-7-30,88,75,71,78,73,70,98,93,71,29.93,29.84,4,0,6,0.78
2012-7-31,86,76,68,78,74,67,99,93,75,29.94,29.85,3,0,5,0.59
2012-8-1,89,78,72,80,75,71,99,91,71,29.89,29.80,2,0,4,0.00
2012-8-2,95,78,70,82,74,69,99,89,59,29.93,29.79,7,0,16,0.24
2012-8-3,92,78,67,81,74,66,99,89,67,30.02,29.91,4,0,7,0.00
2012-8-4,92,79,72,80,75,71,98,87,66,30.15,30.00,5,0,6,0.00
2012-8-5,87,76,73,80,75,72,98,95,77,30.18,30.06,4,0,7,0.55
2012-8-6,88,76,72,80,74,71,99,95,72,30.11,29.97,3,0,5,0.46
2012-8-7,83,76,73,79,75,72,99,96,87,30.01,29.94,2,0,5,0.04
2012-8-8,87,78,73,80,75,72,99,90,73,29.99,29.89,3,0,5,0.02
2012-8-9,90,78,70,80,75,69,98,88,70,29.99,29.81,4,0,7,0.18
2012-8-10,86,76,71,79,74,70,98,95,78,29.88,29.80,4,0,8,0.58
2012-8-11,85,73,70,78,73,70,99,98,79,29.91,29.84,4,0,9,0.56
2012-8-12,87,76,71,80,74,70,99,93,75,29.97,29.89,4,0,5,0.00
2012-8-13,86,75,72,74,72,67,99,91,55,30.00,29.91,0,0,3,0.00
2012-8-14,93,79,68,78,73,68,98,82,55,29.95,29.83,6,0,8,0.00
2012-8-15,91,79,72,79,75,71,97,86,63,29.93,29.85,6,0,7,0.00
2012-8-16,90,78,70,75,72,69,98,83,58,29.99,29.89,2,0,5,0.00
2012-8-17,78,70,68,74,69,68,98,96,90,29.96,29.89,2,0,3,0.00
2012-8-18,90,81,72,77,74,70,92,80,62,29.85,29.76,6,0,7,0.00
2012-8-19,82,74,70,76,72,69,98,94,80,29.89,29.78,4,0,7,0.70
2012-8-20,84,75,72,77,73,70,98,94,74,29.92,29.80,4,0,7,0.76
2012-8-21,84,75,71,76,72,70,98,92,70,29.99,29.89,4,0,5,0.02
2012-8-22,84,74,70,76,72,69,98,94,71,30.04,29.96,4,0,5,1.01
2012-8-23,83,74,70,76,72,69,98,94,76,30.07,29.99,5,0,7,0.12
2012-8-24,82,72,67,74,70,64,98,93,73,30.08,30.01,4,0,7,0.03
2012-8-25,86,72,62,70,66,61,98,82,51,30.11,30.02,5,0,7,0.00
2012-8-26,86,75,64,73,69,63,97,83,61,30.13,30.01,5,0,6,0.00
2012-8-27,88,76,70,79,73,69,97,92,73,30.06,29.96,5,0,7,0.12
2012-8-28,78,76,74,78,75,74,99,98,97,29.98,29.90,1,0,2,0.76
2012-8-29,87,77,72,81,75,72,100,95,78,29.99,29.88,6,0,6,0.32
2012-8-30,82,76,71,78,74,71,99,95,84,30.11,29.94,0,0,1,0.01
2012-8-31,90,78,71,81,76,70,99,91,71,30.19,30.07,1,0,4,0.01
2012-9-1,93,81,72,81,77,72,99,87,61,30.12,29.98,5,0,6,0.00
2012-9-2,95,82,73,80,77,72,98,86,58,30.01,29.88,2,0,5,0.00
2012-9-3,91,78,74,81,75,73,98,92,68,29.99,29.91,5,0,10,0.12
2012-9-4,88,77,72,79,75,72,99,92,71,29.97,29.88,5,0,9,0.07
2012-9-5,91,79,71,78,75,70,99,88,62,29.94,29.84,5,0,6,0.00
2012-9-6,86,78,73,78,75,72,98,91,74,29.95,29.85,2,0,7,0.11
2012-9-7,89,78,71,79,75,70,98,90,68,29.93,29.81,4,0,8,0.55
2012-9-8,91,79,72,80,75,72,98,89,68,29.82,29.68,4,0,9,0.13
2012-9-9,80,72,64,74,69,63,98,89,69,29.94,29.74,5,0,7,0.01
2012-9-10,64,61,59,62,60,58,98,96,91,30.03,29.94,0,0,3,0.00
2012-9-11,82,70,60,67,61,58,97,77,49,30.23,30.09,2,0,5,0.00
2012-9-12,81,68,58,66,61,56,96,78,49,30.28,30.19,6,0,10,0.00
2012-9-13,82,71,63,67,64,60,93,80,56,30.25,30.15,4,0,8,0.00
2012-9-14,84,71,62,72,66,60,95,84,59,30.19,30.08,4,0,7,0.00
2012-9-15,86,72,62,72,66,61,98,84,51,30.13,30.03,2,0,7,0.00
2012-9-16,84,73,64,74,69,63,98,87,64,30.09,29.98,3,0,4,0.00
2012-9-17,86,76,66,74,70,65,98,85,63,30.03,29.87,2,0,5,0.00
2012-9-18,82,74,70,77,73,69,98,94,84,29.88,29.70,4,0,9,0.28
2012-9-19,76,70,65,70,67,62,98,90,75,30.06,29.79,4,0,8,0.02
2012-9-20,79,69,62,70,64,60,96,86,67,30.10,29.99,5,0,6,0.00
2012-9-21,82,69,59,69,64,58,98,84,58,30.05,29.96,2,0,6,0.00
2012-9-22,87,73,61,73,67,60,98,84,58,30.01,29.88,6,0,9,0.00
2012-9-23,82,71,59,68,62,57,97,77,45,30.05,29.93,6,0,8,0.00
2012-9-24,78,65,56,60,57,53,96,78,51,30.14,30.03,5,0,8,0.00
2012-9-25,80,65,53,64,58,52,97,80,49,30.20,30.12,2,0,5,0.00
2012-9-26,83,68,53,70,62,52,98,85,59,30.19,30.09,4,0,5,0.00
2012-9-27,85,71,60,72,67,59,98,86,60,30.17,30.03,3,0,5,0.00
2012-9-28,86,73,63,74,68,62,98,86,62,30.08,29.94,6,0,7,0.00
2012-9-29,85,72,67,74,69,66,98,91,64,29.97,29.81,6,0,6,0.01
2012-9-30,69,68,65,68,67,64,98,97,95,29.86,29.80,1,0,4,0.00
2012-10-1,82,73,68,79,72,68,99,96,85,29.82,29.70,1,0,4,0.01
2012-10-2,84,77,74,78,75,73,99,94,80,29.93,29.71,3,0,6,0.02
2012-10-3,74,74,72,74,73,72,98,98,97,30.06,29.93,0,0,0,0.00
2012-10-6,87,74,63,73,67,62,100,80,47,29.96,29.83,4,0,9,0.00
2012-10-7,75,68,61,70,67,58,98,94,81,30.03,29.88,5,0,7,0.00
2012-10-8,61,57,53,58,54,52,96,90,84,30.09,30.00,6,0,8,0.01
2012-10-9,61,54,49,55,52,48,96,92,80,30.12,30.05,4,0,7,0.00
2012-10-10,75,58,46,64,54,45,100,88,60,30.11,29.98,5,0,8,0.00
2012-10-11,71,59,52,57,52,50,97,80,53,30.25,30.08,4,0,7,0.00
2012-10-12,78,62,49,64,56,48,100,83,56,30.23,30.10,2,0,6,0.00
2012-10-13,73,62,55,60,56,51,91,79,58,30.36,30.22,4,0,7,0.00
2012-10-14,80,66,54,67,60,53,95,83,59,30.27,30.00,2,0,4,0.00
2012-10-15,82,69,59,72,64,54,98,86,66,29.99,29.72,4,0,8,0.00
2012-10-16,72,59,50,54,49,47,93,72,45,29.94,29.81,4,0,7,0.00
2012-10-17,71,58,48,59,53,46,96,86,62,29.98,29.87,2,0,3,0.00
2012-10-18,80,67,55,70,63,54,98,88,65,29.88,29.74,1,0,5,0.00
2012-10-19,79,67,55,66,56,45,97,73,33,29.81,29.71,4,0,8,0.22
2012-10-20,76,61,48,53,50,46,94,70,41,29.90,29.77,6,0,10,0.00
2012-10-21,72,59,50,53,49,46,92,70,45,30.11,29.89,5,0,7,0.00
2012-10-22,69,52,44,57,48,43,97,89,58,30.20,30.09,1,0,2,0.00
2012-10-23,77,59,45,59,52,44,100,80,33,30.18,30.06,1,0,4,0.00
2012-10-24,80,64,52,66,59,51,98,85,55,30.16,30.04,3,0,4,0.00
2012-10-25,82,62,57,68,60,56,98,94,62,30.08,29.99,1,0,4,0.00
2012-10-26,73,65,61,64,62,60,97,91,71,30.00,29.78,4,0,6,0.00
2012-10-27,69,67,64,64,62,56,90,82,73,29.78,29.56,7,1,12,0.00
2012-10-28,73,64,58,57,55,49,85,73,58,29.61,29.53,6,1,10,0.00
2012-10-29,62,55,45,49,40,36,80,59,43,29.64,29.49,11,2,13,0.00
2012-10-30,60,55,44,39,36,33,66,49,40,29.68,29.50,6,1,13,0.00
2012-10-31,66,50,39,39,32,26,75,53,24,29.79,29.68,9,1,12,0.00
2012-11-1,65,48,34,34,30,27,84,56,25,29.89,29.76,6,0,12,0.00
2012-11-2,76,55,37,46,38,29,80,57,32,29.95,29.79,7,0,14,0.00
2012-11-3,68,55,41,49,43,38,93,68,37,30.09,29.92,2,0,4,0.00
2012-11-4,83,62,50,65,56,49,97,81,40,29.98,29.83,5,0,14,0.06
2012-11-5,63,53,47,53,45,42,91,76,48,30.03,29.90,5,0,7,0.00
2012-11-6,52,46,41,44,41,38,93,80,68,30.01,29.88,4,0,8,0.08
2012-11-7,53,44,37,43,39,35,93,83,64,29.93,29.82,5,0,8,0.00
2012-11-8,64,53,40,45,37,33,97,59,32,30.10,30.01,7,1,9,0.00
2012-11-9,65,48,33,43,36,30,93,68,34,30.26,30.10,2,0,5,0.00
2012-11-10,73,52,38,48,42,36,96,72,36,30.35,30.23,2,0,4,0.00
2012-11-11,76,55,41,62,50,38,95,85,61,30.42,30.32,3,0,6,0.00
2012-11-12,78,65,56,66,60,55,98,85,59,30.33,30.11,2,0,6,0.00
2012-11-13,67,57,50,64,55,49,97,95,87,30.29,30.11,5,0,8,0.04
2012-11-14,52,49,46,49,44,42,96,82,74,30.37,30.24,7,0,9,0.00
2012-11-15,50,46,42,45,44,40,97,93,76,30.26,30.17,5,0,9,0.75
2012-11-16,58,50,45,50,46,43,94,87,69,30.28,30.19,2,0,7,0.00
2012-11-17,56,54,47,48,45,39,78,72,67,30.35,30.27,7,0,10,0.00
2012-11-18,53,51,48,50,47,43,96,88,72,30.30,30.19,4,0,8,0.29
2012-11-19,65,56,51,56,51,48,94,85,72,30.21,30.09,5,0,7,0.00
2012-11-20,64,52,43,54,48,42,95,87,67,30.14,30.00,4,0,6,0.00
2012-11-21,62,48,38,50,43,37,100,84,52,30.11,30.03,5,0,8,0.00
2012-11-22,63,46,36,41,38,34,92,74,36,30.21,30.10,5,0,6,0.00
2012-11-23,64,39,31,44,34,30,96,85,48,30.15,30.05,2,0,6,0.00
2012-11-24,60,50,39,38,34,32,81,58,37,30.07,29.93,8,1,8,0.00
2012-11-25,59,43,34,38,31,25,92,64,37,30.18,30.04,4,0,4,0.00
2012-11-26,70,47,33,43,35,31,96,70,24,30.20,30.09,1,0,5,0.00
2012-11-27,59,50,42,52,45,34,97,83,55,30.16,30.05,2,0,4,0.12
2012-11-28,57,48,36,50,43,34,97,86,61,30.35,30.13,5,0,6,0.00
2012-11-29,59,40,31,42,34,30,97,83,39,30.44,30.33,2,0,4,0.00
2012-11-30,64,46,35,50,41,33,96,84,54,30.38,30.26,1,0,2,0.00
2012-12-1,68,52,41,55,48,40,97,86,63,30.36,30.27,1,0,3,0.00
2012-12-2,74,58,46,62,54,45,96,88,63,30.34,30.22,0,0,5,0.00
2012-12-3,75,59,49,63,55,48,98,88,56,30.29,30.19,4,0,6,0.00
2012-12-4,76,60,50,64,56,49,98,88,57,30.32,30.18,4,0,5,0.00
2012-12-5,74,62,52,61,56,51,98,84,53,30.19,30.05,4,0,7,0.01
2012-12-6,64,57,50,57,50,42,95,78,63,30.17,30.09,4,0,6,0.00
2012-12-7,59,53,49,53,47,42,88,80,75,30.10,29.96,4,0,5,0.00
2012-12-10,74,68,61,63,61,58,92,80,68,29.83,29.72,2,0,8,0.00
2012-12-11,63,60,55,61,58,54,98,92,80,30.04,29.73,2,0,4,0.04
2012-12-12,55,50,43,54,47,42,98,89,74,30.20,30.03,4,0,9,0.34
2012-12-13,50,44,41,46,42,40,100,92,84,30.31,30.15,5,0,9,0.36
2012-12-14,59,45,36,43,39,35,95,83,52,30.35,30.18,3,0,6,0.00
2012-12-15,59,50,36,54,46,35,100,86,70,30.22,30.05,2,0,5,0.00
2012-12-16,70,59,54,64,58,53,98,95,79,30.06,29.84,0,0,4,0.01
2012-12-17,62,59,56,61,58,56,100,98,97,29.85,29.64,6,0,10,0.77
2012-12-18,65,55,42,59,48,37,99,79,42,29.96,29.70,9,1,14,0.00
2012-12-19,69,50,37,48,42,35,92,75,45,30.07,29.95,6,0,8,0.00
2012-12-20,73,56,41,63,51,40,97,86,61,30.07,29.58,6,0,20,0.07
2012-12-21,53,45,41,42,31,24,68,58,46,29.94,29.70,12,2,24,0.00
2012-12-22,56,42,32,30,25,22,72,53,29,30.14,29.94,5,0,9,0.00
2012-12-23,57,43,29,39,32,25,89,68,41,30.17,30.05,2,0,5,0.00
2012-12-24,57,50,43,50,44,36,100,81,56,30.06,29.89,1,0,3,0.01
2012-12-25,54,52,48,52,51,48,98,97,93,30.05,29.89,1,0,2,0.01
2012-12-26,66,56,42,64,51,34,99,83,58,29.89,29.47,9,1,20,0.09
2012-12-27,55,45,36,41,38,34,94,76,55,30.03,29.92,5,0,9,0.00
2012-12-28,50,47,35,44,42,33,94,83,72,30.09,29.91,1,0,4,0.00
2012-12-29,55,47,40,47,40,33,93,74,71,30.02,29.74,9,1,13,0.77
2012-12-30,51,39,30,33,30,26,90,72,41,30.40,30.02,4,0,7,0.00
2012-12-31,59,51,35,47,42,32,88,70,51,30.40,30.17,3,0,5,0.00
2013-1-1,66,56,47,58,52,45,95,87,72,30.10,29.89,2,0,5,0.00